Starlink 30964

operational
NORAD ID: 58402 Int'l Des: 2023-180 Owner: SPXS Country: US Constellation: starlink
LEOCIRCULAR

Starlink 30964について

説明を読み込み中...

リアルタイム位置

3D地球を読み込み中...

次回通過

高度履歴

Altitude vs Time

uPlot chart will show altitude changes over time

軌道要素

1 58402U 23180A 25352.75332000 -.00000184 00000-0 14800-5 0 9992
2 58402 43.0012 135.5156 0001225 265.3115 94.7587 15.02535357115418
Epoch: Dec 18, 2025 • Age: 8 hours

現在のステータス

高度 561.8 km
速度 7.59 km/s
衛星直下点 37.72°N, 131.48°E
打ち上げ日 Nov 22, 2023
運用期間 2 years
タイプ internet

技術仕様

分類 Payload
質量 730.00 kg
乾燥質量 700.00 kg
総質量 730.00 kg
長さ 0.30 m
直径 4.10 m
スパン 29.00 m
形状 Box + pan
製造者 SPXS
バスタイプ Starlink V2M
フェーズステータス In Orbit
所有者/国 SPXS/US

大規模コンステレーション

Loading constellations...